TimeCDT,TemperatureF,Dew PointF,Humidity,Sea Level PressureIn,VisibilityMPH,Wind Direction,Wind SpeedMPH,Gust SpeedMPH,PrecipitationIn,Events,Conditions,WindDirDegrees,DateUTC
12:53 AM,8.1,1.0,73,30.30,10.0,ENE,13.8,-,N/A,,Overcast,70,2013-03-17 05:53:00
1:53 AM,8.1,1.0,73,30.28,10.0,East,9.2,-,N/A,,Overcast,80,2013-03-17 06:53:00
2:53 AM,9.0,1.9,73,30.27,10.0,East,10.4,-,N/A,,Overcast,80,2013-03-17 07:53:00
3:53 AM,9.0,1.9,73,30.24,4.0,East,9.2,-,0.00,Snow,Light Snow,90,2013-03-17 08:53:00
4:53 AM,8.1,1.9,76,30.22,6.0,East,10.4,-,0.00,Snow,Light Snow,100,2013-03-17 09:53:00
5:53 AM,8.1,1.9,76,30.19,6.0,East,11.5,-,0.01,Snow,Light Snow,100,2013-03-17 10:53:00
6:53 AM,9.0,1.9,73,30.16,6.0,ESE,12.7,-,0.00,Snow,Light Snow,110,2013-03-17 11:53:00
7:53 AM,9.0,3.0,77,30.14,9.0,ESE,13.8,-,0.00,Snow,Light Snow,110,2013-03-17 12:53:00
8:53 AM,10.0,3.9,76,30.09,10.0,SE,10.4,-,0.00,,Overcast,130,2013-03-17 13:53:00
9:53 AM,12.0,5.0,73,30.06,10.0,SE,17.3,-,N/A,,Overcast,140,2013-03-17 14:53:00
10:53 AM,14.0,7.0,74,30.02,10.0,SE,17.3,-,N/A,,Overcast,140,2013-03-17 15:53:00
11:28 AM,15.8,8.6,73,29.92,10.0,SSE,19.6,29.9,N/A,,Overcast,150,2013-03-17 16:28:00
11:53 AM,16.0,9.0,74,29.99,10.0,SSE,20.7,-,N/A,,Overcast,150,2013-03-17 16:53:00
12:26 PM,17.6,10.4,73,29.89,10.0,SSE,24.2,31.1,N/A,,Overcast,150,2013-03-17 17:26:00
12:46 PM,17.6,10.4,73,29.87,10.0,SSE,19.6,29.9,N/A,,Overcast,150,2013-03-17 17:46:00
12:53 PM,19.0,12.0,74,29.95,10.0,SSE,20.7,31.1,N/A,,Overcast,150,2013-03-17 17:53:00
1:53 PM,21.9,15.1,75,29.88,10.0,SSE,27.6,38.0,N/A,,Overcast,150,2013-03-17 18:53:00
2:53 PM,24.1,16.0,71,29.81,10.0,SSE,27.6,35.7,N/A,,Overcast,160,2013-03-17 19:53:00
3:53 PM,25.0,18.0,75,29.76,10.0,SSE,24.2,34.5,0.00,,Overcast,150,2013-03-17 20:53:00
4:53 PM,28.0,19.9,72,29.72,10.0,SSE,23.0,-,0.01,,Mostly Cloudy,150,2013-03-17 21:53:00
5:53 PM,28.0,21.0,75,29.67,10.0,SSE,24.2,31.1,N/A,,Overcast,150,2013-03-17 22:53:00
6:53 PM,28.0,24.1,85,29.65,9.0,SSE,26.5,31.1,0.00,,Overcast,160,2013-03-17 23:53:00
7:01 PM,28.4,24.8,86,29.58,10.0,SSE,29.9,36.8,N/A,,Overcast,160,2013-03-18 00:01:00
7:53 PM,28.9,25.0,85,29.63,6.0,SSE,28.8,36.8,0.00,,Overcast,160,2013-03-18 00:53:00
8:53 PM,30.0,26.1,85,29.60,10.0,SSE,26.5,38.0,N/A,,Overcast,160,2013-03-18 01:53:00
9:08 PM,30.2,26.6,86,29.53,2.0,SSE,31.1,42.6,0.00,Snow,Light Snow,160,2013-03-18 02:08:00
9:11 PM,30.2,26.6,86,29.53,1.2,SSE,31.1,42.6,0.00,Snow,Light Snow,160,2013-03-18 02:11:00
9:34 PM,30.2,28.4,93,29.53,2.0,South,25.3,34.5,0.00,Snow,Light Snow,170,2013-03-18 02:34:00
9:51 PM,30.2,28.4,93,29.52,3.0,South,25.3,-,0.00,,Overcast,170,2013-03-18 02:51:00
9:53 PM,30.9,28.0,89,29.58,3.0,South,27.6,35.7,0.00,,Overcast,170,2013-03-18 02:53:00
10:05 PM,30.2,28.4,93,29.52,2.5,South,25.3,36.8,0.00,Snow,Light Snow,170,2013-03-18 03:05:00
10:20 PM,32.0,28.4,87,29.51,3.0,South,26.5,36.8,0.00,,Overcast,170,2013-03-18 03:20:00
10:53 PM,32.0,28.9,88,29.56,5.0,South,29.9,36.8,0.00,,Overcast,170,2013-03-18 03:53:00
11:53 PM,33.1,30.0,89,29.53,9.0,South,25.3,33.4,0.02,,Overcast,170,2013-03-18 04:53:00